CST,Max TemperatureF,Mean TemperatureF,Min TemperatureF,Max Dew PointF,MeanDew PointF,Min DewpointF,Max Humidity, Mean Humidity, Min Humidity, Max Sea Level PressureIn, Mean Sea Level PressureIn, Min Sea Level PressureIn, Max VisibilityMiles, Mean VisibilityMiles, Min VisibilityMiles, Max Wind SpeedMPH, Mean Wind SpeedMPH, Max Gust SpeedMPH,PrecipitationIn, CloudCover, Events, WindDirDegrees
2013-2-1,2,-4,-9,-4,-10,-19,79,68,54,30.34,30.22,30.10,10,7,2,14,9,21,0.00,3,Snow,256
2013-2-2,9,2,-6,-2,-5,-10,87,73,51,30.17,30.11,29.98,10,8,2,7,1,,0.00,5,Snow,330
2013-2-3,15,4,-6,3,-1,-10,85,75,56,30.06,29.97,29.91,10,9,5,18,3,22,0.00,6,Snow,291
2013-2-4,14,7,-2,5,0,-7,85,71,41,30.04,29.99,29.95,10,8,2,10,1,,0.00,4,Snow,351
2013-2-5,25,10,-6,19,8,-12,92,81,65,30.10,29.83,29.70,10,7,1,15,4,20,0.00,7,Snow,241
2013-2-6,24,7,-10,22,11,-17,93,84,63,30.25,30.14,30.06,10,5,0,9,2,,0.00,6,Fog-Snow,102
2013-2-7,28,24,21,27,22,16,100,90,80,30.14,30.03,29.97,6,2,0,16,6,24,0.00,8,Fog-Snow,28
2013-2-8,24,12,-2,16,6,-8,92,77,55,30.42,30.34,30.18,10,8,1,12,5,,0.00,2,,360
2013-2-9,25,8,-8,21,8,-14,96,84,77,30.42,30.27,30.09,10,6,0,12,2,,0.00,7,Fog-Snow,168
2013-2-10,39,29,19,39,31,18,100,95,84,30.07,29.58,29.33,10,3,0,18,6,28,0.08,7,Fog-Rain,108
2013-2-11,35,30,24,34,27,16,100,87,69,29.98,29.51,29.31,10,6,1,25,14,33,0.01,8,Rain-Snow,252
2013-2-12,27,19,10,17,14,8,92,73,63,30.06,29.97,29.86,10,10,6,0,0,,0.00,4,Snow,-1
2013-2-13,37,22,8,25,18,5,96,79,55,29.84,29.74,29.63,10,8,2,0,0,,0.00,5,,-1
2013-2-14,32,26,19,32,26,9,100,89,63,30.03,29.69,29.55,10,4,1,0,0,,0.00,8,Snow,-1
2013-2-15,20,12,3,5,1,-5,76,63,48,30.24,30.19,30.08,10,10,10,0,0,,0.00,1,,-1
2013-2-16,13,2,-10,0,-7,-16,79,63,41,30.24,30.20,30.14,10,10,10,0,0,,0.00,2,,-1
2013-2-17,22,2,-17,10,-6,-23,83,62,42,30.25,30.15,29.92,10,10,10,0,0,,0.00,1,,-1
2013-2-18,41,32,22,29,23,12,93,75,60,29.91,29.57,29.45,10,8,2,0,0,,0.00,4,Rain-Snow,-1
2013-2-19,21,12,3,18,4,-7,89,72,53,30.22,29.76,29.52,10,3,0,23,2,34,0.00,7,Snow,305
2013-2-20,22,12,1,6,0,-7,72,61,48,30.44,30.36,30.23,10,10,10,0,0,,0.00,0,,-1
2013-2-21,22,11,0,19,10,-4,100,82,74,30.48,30.33,30.10,10,10,6,0,0,,0.00,6,Snow,-1
2013-2-22,28,24,19,25,21,16,100,90,78,30.11,29.87,29.78,10,4,0,0,0,,0.00,8,Fog-Snow,-1
2013-2-23,28,24,19,20,19,15,93,80,63,29.92,29.84,29.80,10,8,2,0,0,,0.00,7,Snow,-1
2013-2-24,34,23,12,21,16,10,93,82,52,30.15,30.08,29.93,10,5,0,0,0,,0.03,4,Fog-Snow,-1
2013-2-25,34,22,10,23,14,7,93,84,59,30.18,30.13,30.07,10,5,0,0,0,,0.00,4,Fog,-1
2013-2-26,33,26,18,25,22,17,100,79,60,30.08,29.85,29.72,10,6,1,16,3,32,0.00,5,Snow,36
2013-2-27,32,29,26,29,26,21,93,86,72,29.84,29.72,29.67,10,5,1,13,5,22,0.00,8,Snow,5
2013-2-28,31,27,23,25,20,12,79,68,58,30.18,30.02,29.86,10,10,10,4,0,,0.00,8,,180